VJT13 SAZN-SABE

Flight info

Callsign VJT13
Flight time N/A
Altitude 29000
Route NIDBA3C NIDBA DCT ISMIL UT655 ASADA ASADA9R
Aircraft SF50/L-SDGRWY/L

Departure

Time N/A
Airport Presidente Perón International Airport (SAZN)

Arrival

Time 2026-05-07 20:23
Airport Aeroparque Jorge Newbery (SABE)
Time Latitude Longitude Altitude Speed Heading
2026-05-07 20:19 -34.64623 -58.26082 2587 ft 144 kts 298°
2026-05-07 20:19 -34.64048 -58.27047 2643 ft 134 kts 297°
2026-05-07 20:20 -34.63499 -58.27987 2687 ft 158 kts 293°
2026-05-07 20:20 -34.62806 -58.29265 2385 ft 188 kts 297°
2026-05-07 20:20 -34.62046 -58.30615 2080 ft 193 kts 297°
2026-05-07 20:20 -34.61283 -58.31970 1791 ft 192 kts 301°
2026-05-07 20:21 -34.60543 -58.33293 1510 ft 189 kts 295°
2026-05-07 20:21 -34.59812 -58.34606 1238 ft 184 kts 302°
2026-05-07 20:21 -34.59085 -58.35901 980 ft 180 kts 299°
2026-05-07 20:21 -34.58394 -58.37148 747 ft 173 kts 301°
2026-05-07 20:22 -34.57782 -58.38241 545 ft 139 kts 299°
2026-05-07 20:22 -34.57273 -58.39163 348 ft 119 kts 299°
2026-05-07 20:22 -34.56860 -58.39880 200 ft 98 kts 296°
2026-05-07 20:22 -34.56505 -58.40532 62 ft 89 kts 294°
2026-05-07 20:23 -34.56184 -58.41106 36 ft 70 kts 302°
2026-05-07 20:23 -34.55979 -58.41546 23 ft 48 kts 304°
2026-05-07 20:23 -34.55808 -58.41785 22 ft 30 kts 304°
2026-05-07 20:23 -34.55669 -58.41893 22 ft 20 kts 354°
2026-05-07 20:24 -34.55570 -58.41927 22 ft 13 kts 28°
2026-05-07 20:24 -34.55563 -58.41908 22 ft 0 kts 87°